www.pogodaiklimat.ru

Погода и климат >> Архив погоды >> Россия >> Крым >> Никитский сад


ПОГОДА в Никитском саду

  • Прогноз погоды в Никитском саду
  • Монитор погоды в Никитском саду

АРХИВ ПОГОДЫ в Никитском саду

Время (UTC), дата Ветер
(напр.,м/с)
 
Видим.   Явления Облачность Т
(С)
Тd
(С)
f
(%)
Тe
(С)
Тes
(С)
Комфортность P
(гПа)
Po
(гПа)
Тmin
(С)
Tmax
(С)
R
(мм)
R24
(мм)
S
(см)
06 16.08 СВ 1 20 км 10/0 1000 м
[Ac As]
+25.1 +17.3 62 +29 +31 душно 1007.6 985.7 +21.6
09 16.08 Ю 1 20 км 10/5 1000 м
[Sc Ac As]
+25.5 +20.0 72 +31 +34 очень
душно
1008.1 986.2
12 16.08 ЮЗ 2 20 км 10/4 1000 м
[Sc Ac As]
+25.0 +19.8 73 +31 +33 очень
душно
1008.2 986.3
15 16.08 ЮЗ 2 20 км 10/4 1000 м
[Sc Ac As]
+24.6 +20.0 76 +30 +31 очень
душно
1008.4 986.5
18 16.08 СВ 3 20 км {ливн. осадки} 10/5 1000 м
[Sc Ac und]
+23.3 +20.7 85 +31 +31 очень
душно
1009.7 987.6 +26.3 0.0
21 16.08 СВ 1 20 км 9/5 1000 м
[Sc Ac trans]
+22.7 +19.4 82 +29 +29 очень
душно
1010.0 987.9
00 17.08 С 1 20 км 3/1 1000 м
[Sc Ac trans]
+21.0 +19.1 89 +27 +27 душно 1009.4 987.2
03 17.08 С 1 20 км 1/0
[Ac trans]
+20.1 +17.7 86 +24 +24 комфорт 1009.9 987.6 +19.9 0.0
06 17.08 ЮЗ 3 20 км 3/3 600 м
[Cu Sc]
+24.3 +13.7 52 +27 +30 жарко 1010.2 988.1 +19.9
09 17.08 ЮЗ 3 20 км 4/3 600 м
[Cu Sc Ci fib]
+25.3 +18.0 64 +30 +38 душно 1010.5 988.6
12 17.08 Ю 2 20 км 8/5 600 м
[Cu Sc Ac und Cc]
+23.8 +18.8 74 +29 +33 душно 1011.0 988.9
15 17.08 ЮВ 2 20 км 8/4 600 м
[Cu Sc Ac trans Cc]
+23.7 +18.6 73 +28 +29 душно 1010.7 988.6
18 17.08 СЗ 1 20 км 10/4
[Cu med, cong Ci fib]
+21.6 +15.1 67 +25 +25 комфорт 1011.5 989.2 +26.5
21 17.08 СЗ 2 20 км 10/3 1000 м
[Cu med, cong Ac und Ci fib]
+21.7 +15.8 69 +25 +25 комфорт 1011.2 988.9
00 18.08 С 1 20 км 10/3 1000 м
[Sc Ac trans Ci fib]
+21.0 +13.1 61 +25 +25 комфорт 1010.8 988.5
03 18.08 СВ 1 20 км 10/3 1000 м
[Sc Ac und Ci sp]
+20.9 +11.8 56 +24 +24 комфорт 1010.6 988.3 +20.5
06 18.08 СВ 2 10 км слаб. ливневой дождь 10/3 600 м
[Cb cap Ac As]
+18.7 +15.8 83 +20 +22 1011.7 989.2 +18.2 2
09 18.08 ЮЗ 2 20 км 10/3 600 м
[Cu med, cong Ac As]
+21.1 +15.4 70 +24 +27 комфорт 1012.6 990.3
12 18.08 В 2 10 км дождь 10/3 300 м
[Frnb Ac As]
+19.1 +17.3 89 +21 +24 комфорт 1013.7 991.2
15 18.08 СВ 1 4000 м слаб. ливневой дождь 10/10 300 м
[Cb cap]
+17.7 +16.0 90 +19 +19 1014.7 992.1 6
18 18.08 СЗ 1 20 км {ливн. осадки, дождь} 10/8 300 м
[St Ac und]
+17.5 +16.4 93 +19 +19 1015.6 992.9 +21.5 6
21 18.08 СЗ 2 20 км 10/8 600 м
[Sc Ac und]
+17.3 +14.7 85 +18 +18 1016.0 993.3
00 19.08 СЗ 1 20 км 10/5 1000 м
[Sc Ac und]
+17.9 +15.1 84 +19 +19 1016.3 993.6
03 19.08 С 1 20 км 10/3 1000 м
[Sc Ac trans Cc]
+18.0 +12.6 71 +19 +19 1016.7 994.0 +17.0 2
06 19.08 ЮЗ 1 20 км 8/3 1000 м
[Sc Ac und Cc]
+21.6 +12.4 56 +24 +27 комфорт 1017.0 994.6 +17.0
09 19.08 ЮЗ 2 20 км 6/3 1000 м
[Cu Sc Ac trans Ci sp]
+23.5 +13.8 54 +26 +34 жарко 1017.2 994.9
12 19.08 ЮЗ 3 20 км 6/6 1000 м
[Cu Sc]
+24.1 +13.7 52 +26 +30 жарко 1016.9 994.7
15 19.08 ЮЗ 2 20 км 5/3 1000 м
[Cu Sc Ci fib]
+23.6 +16.0 62 +27 +28 жарко 1017.0 994.8
18 19.08 С 1 20 км 3/3 1000 м
[Cu Sc Ac trans]
+21.3 +13.7 62 +24 +24 комфорт 1018.3 995.8 +25.1
21 19.08 В 1 20 км 3/0
[Ac trans Ci fib]
+22.2 +13.4 57 +25 +25 комфорт 1017.8 995.4
00 20.08 СВ 2 20 км 4/0
[Ci fib]
+23.2 +15.4 62 +27 +27 душно 1017.0 994.7
03 20.08 СЗ 1 20 км 5/1 1000 м
[Cu hum Ac cast Ci sp]
+20.5 +14.5 68 +24 +24 комфорт 1017.9 995.4 +20.3
06 20.08 В 1 20 км 5/4 1000 м
[Sc Ci fib]
+24.7 +16.3 60 +28 +32 душно 1017.8 995.6 +20.0
09 20.08 Ю 2 20 км 8/6 1000 м
[Sc Ac trans]
+25.9 +17.3 59 +30 +34 душно 1017.2 995.1
12 20.08 Ю 2 20 км 6/4 1000 м
[Sc Ac trans]
+28.5 +18.6 55 +34 +39 очень
душно
1016.3 994.5
15 20.08 СВ 3 20 км 8/5 1000 м
[Sc Ac trans Cc]
+29.1 +17.3 49 +33 +34 очень
душно
1016.1 994.3
18 20.08 СВ 4
{10}
20 км 10/0
[Ac trans Ci fib]
+28.3 +14.4 43 +31 +31 душно 1016.6 994.7 +30.1
21 20.08 СВ 4
{10}
20 км 10/0
[Ci fib]
+28.7 +15.0 43 +31 +31 жарко 1016.0 994.1
00 21.08 СВ 3 20 км 10/6 1000 м
[Sc Ac und]
+27.6 +15.8 49 +31 +31 душно 1015.2 993.3
03 21.08 СВ 3 20 км 10/0
[Ac trans Ci fib]
+25.5 +17.6 62 +30 +30 душно 1014.6 992.6 +25.3
06 21.08 СВ 3 20 км 4/1 1000 м
[Cu hum Ac lent Cc]
+29.9 +17.3 47 +34 +38 очень
душно
1014.1 992.4 +25.3
09 21.08 СВ 4-10
{10}
20 км {гроза, дождь} 8/3 1000 м
[Cu Sc Ac lent Cc]
+31.6 +17.0 42 +35 +40 очень
душно
1012.2 990.7
12 21.08 В 3
{10}
20 км {гроза, ливн. осадки} 9/6 1000 м
[Cu Sc Ac trans Ci sp]
+27.9 +20.1 63 +34 +37 очень
душно
1013.0 991.2
15 21.08 З 2 20 км 10/8 1000 м
[Sc Ac und Ci sp]
+25.7 +21.2 76 +32 +33 очень
душно
1011.7 989.8 0.0
18 21.08 З 2
{12}
20 км {гроза} 8/3 1000 м
[Sc As trans]
+24.9 +20.9 78 +31 +31 очень
душно
1013.6 991.6 +33.1 0.0
21 21.08 СВ 2 10 км гроза, ливневой дождь 10/10 1000 м
[Cb cap]
+27.8 +14.6 44 +30 +30 жарко 1012.3 990.5
00 22.08 В 3 20 км слаб. ливневой дождь {гроза} 10/10 1000 м
[Cb cap]
+26.3 +15.1 50 +29 +29 жарко 1012.4 990.4
03 22.08 СВ 1 20 км {ливн. осадки} 10/6 1000 м
[Sc As trans Ci sp]
+26.3 +11.7 40 +28 +28 жарко 1011.5 989.5 +24.6 0.7
06 22.08 СЗ 2 20 км {ливн. осадки} 10/8 1000 м
[Sc Ac As]
+27.7 +13.1 41 +29 +30 жарко 1011.8 989.9 +24.5 0.8
09 22.08 ЮВ 1 20 км 9/4 1000 м
[Cu med, cong Ac trans Cc]
+31.3 +15.3 38 +34 +40 душно 1010.5 989.0
12 22.08 В 2 20 км 8/3 1000 м
[Sc Ac trans Cc]
+33.4 +16.4 36 +36 +41 очень
душно
1010.8 989.4
15 22.08 СВ 3 20 км 8/0
[Ac und Cc]
+32.6 +12.5 29 +33 +34 жарко 1011.6 990.1 0.1
18 22.08 СВ 4
{10}
20 км 8/4 1000 м
[Sc Ac trans Cc]
+31.6 +8.0 23 +30 +30 жарко 1012.1 990.5 +36.6
21 22.08 СВ 4
{11}
20 км 8/3 1000 м
[Sc Ac und Cc]
+31.5 +8.7 24 +30 +30 жарко 1012.1 990.5
00 23.08 СВ 5-12
{13}
20 км 3/0
[Ac lent Ci fib]
+30.9 +11.3 30 +31 +31 жарко 1012.1 990.5
03 23.08 СВ 6-12
{12}
20 км 4/0
[Ac lent Cc]
+30.9 +11.6 31 +31 +31 жарко 1012.9 991.2 +29.9

 

Местоположение метеостанции Никитский сад (Крым, Россия): широта 44.52 долгота 34.25 высота над уровнем моря 194 м.

В архиве по умолчанию представлена погода в Никитском саду за последнюю неделю. Архивные данные за месяц целиком и за предыдущие месяцы, начиная с января 2011 года, Вы можете получить, выбрав интересующий диапазон дат из раскрывающегося списка и нажав кнопку "Ввод!".


*Определитесь, кто Вы:
робот инопланетянин человек

Внимание! Время в таблицах - всемирное. Для получения местного времени необходимо прибавить поправку, которая равна 3 ч.

Смотрите также архив погоды в соседних городах и на ближайших метеорологических станциях:

Погода в Ялте (Крым, Россия) (8 км)
Погода на Ай-Петри (Крым, Россия) (15 км)
Погода в Алуште (Крым, Россия) (20 км)
Погода на Ангарском Перевале (Крым, Россия) (27 км)
Погода в Почтовом (Крым, Россия) (42 км)
Погода в Симферополе город (Крым, Россия) (49 км)
Погода в Севастополе (город Севастополь, Россия) (58 км)
Погода в Симферополе (Крым, Россия) (61 км)
Погода в Белогорске (Крым, Россия) (65 км)
Погода в Херсонесском Маяке (город Севастополь, Россия) (69 км)

Пояснения к столбцам:

Ветер - указаны скорость ветра в м/с - средняя за 10 мин, порывы в срок и между сроками (в фигурных скобках) и направление, откуда дует ветер: С - северный, СВ - северо-восточный, В - восточный, ЮВ - юго-восточный, Ю - южный, ЮЗ - юго-западный, З - западный, СЗ - северо-западный.
Видимость - горизонтальная дальность видимости в метрах или километрах. При видимости от 1 до 10 км при отсутствии осадков обычно наблюдается дымка, при ухудшении видимости до 1 км и менее - туман. В сухую погоду видимость может ухудшаться дымом, пылью или мглою.
Явления - указаны атмосферные явления, наблюдавшиеся в срок или в последний час перед сроком; фигурными скобками обозначены явления, наблюдавшиеся между сроками (за 1-3 часа до срока); квадратными скобками обозначены град или гололедные отложения с указанием их диаметра в мм.
Облачность - указаны через наклонную черту общая и нижняя облачность в баллах и высота нижней границы облаков в метрах; квадратными скобками обозначены формы облаков: Ci - перистые, Cs - перисто-слоистые, Cc - перисто-кучевые, Ac - высококучевые, As - высокослоистые, Sc - слоисто-кучевые, Ns - слоисто-дождевые, Cu - кучевые, Cb - кучево-дождевые. Подробнее классификацию облаков см. в Атласе облаков (PDF).
T - Температура воздуха - температура, измеренная на высоте 2 м над землей.
Td - Температура точки росы - температура, при понижении до которой содержащийся в воздухе водяной пар достигнет насыщения.
f - Относительная влажность воздуха - влажноcть воздуха, измеренная на высоте 2 м над землей.
Te - Эффективная температура - температура, которую ощущает одетый по сезону человек в тени. Характеристика душности погоды. При расчете учитывается влияние влажности воздуха и скорости ветра на теплоощущения человека.
Tes - Эффективная температура на солнце - температура, которую ощущает человек, с поправкой на солнечный нагрев. Характеристика знойности погоды. Зависит от высоты солнца над горизонтом, облачности и скорости ветра. Ночью, в пасмурную погоду, а также при ветре 12 м/с и более поправка равна нулю.
P - Атмосферное давление - приведенное к уровню моря атмосферное давление.
Po - Атмосферное давление - измеренное на уровне метеостанции атмосферное давление.
Tmin - Минимальная температура - минимум температуры воздуха на высоте 2 м над землей.
Tmax - Максимальная температура - максимум температуры воздуха на высоте 2 м над землей.
R - Количество осадков - Количество выпавших осадков за период времени, мм. При наведении курсора мыши на число - период времени, за который выпало указанное количество осадков.
R24 - Количество осадков - Количество выпавших осадков за 24 часа, мм.
S - Снежный покров - Высота снежного покрова, см. При наведении курсора мыши на число - состояние снежного покрова и степень покрытия местности в баллах.